Home > Time Zones > World Clock > Weather > Mali > Bamako > Past weeks

Flag for Mali Weather past 2 weeks in Bamako, Mali

Now
91 °F

Partly sunny.


Feels Like: 93 °F
Forecast: 68 / 95 °F
Wind: 2 mph from North

Location: Bamako / Senou

Current Time: Oct 25, 2014 at 11:43:36 AM

Latest Report: Oct 25, 2014 at 11:00 AM


Visibility: N/A

Pressure: 29.95 "Hg

Humidity: 41%

Dew point: 64 °F

Location of BamakoLocation

Historic Weather in Bamako — Graph

°F

Bamako temperature yesterday

Maximum temperature yesterday: 97 °F (at 1:30 PM)
Minimum temperature yesterday: 66 °F (at 3:00 AM)
Average temperature yesterday: 84 °F

Past Weeks' High & Low Weather Summary

 TemperatureHumidityPressure
High100 °F (Oct 17, 2:00 PM)100% (Oct 10, 11:30 PM)30.07 "Hg (Oct 10, 11:30 PM)
Low66 °F (Oct 24, 3:00 AM)17% (Oct 17, 2:00 PM)29.83 "Hg (Oct 11, 4:30 PM)
Average83 °F65%29.94 "Hg
* Reported Oct 10 10:00 AM — Oct 25 10:30 AM, Bamako, Weather by CustomWeather, © 2014

Note: Actual official high and low records may vary slightly from our data, if they occured in-between our weather recording intervals... More about our weather records

Advertising

Bamako weather history for previous 24 hours

 ConditionsComfort  
Time TempWeatherWind HumidityBarometerVisibility
10:30 AM
Oct 25
90 °FSunny.3 mph43%29.95 "Hg10 mi
10:00 AM88 °FSunny.1 mph49%29.98 "Hg10 mi
9:30 AM86 °FSunny.2 mph55%29.98 "Hg10 mi
9:00 AM82 °FSunny.1 mph62%29.98 "Hg10 mi
8:30 AM81 °FSunny.2 mph66%29.95 "Hg10 mi
8:00 AM79 °FSunny.No wind70%29.95 "Hg10 mi
7:30 AM75 °FSunny.2 mph83%29.95 "Hg10 mi
7:00 AM70 °FSunny.5 mph94%29.95 "Hg10 mi
6:30 AM70 °FSunny.No wind100%29.92 "Hg10 mi
6:00 AM70 °FClear.No wind100%29.92 "Hg10 mi
5:30 AM72 °FClear.No wind88%29.92 "Hg10 mi
5:00 AM72 °FClear.3 mph88%29.92 "Hg10 mi
4:30 AM70 °FClear.No wind100%29.92 "Hg10 mi
4:00 AM72 °FClear.No wind94%29.92 "Hg10 mi
3:30 AM70 °FClear.No wind100%29.89 "Hg10 mi
3:00 AM70 °FClear.No wind100%29.92 "Hg10 mi
2:30 AM70 °FClear.No wind100%29.92 "Hg10 mi
2:00 AM72 °FClear.No wind94%29.92 "Hg10 mi
1:30 AM72 °FClear.No wind94%29.92 "Hg10 mi
1:00 AM72 °FClear.No wind94%29.92 "Hg10 mi
12:30 AM73 °FClear.No wind89%29.95 "Hg10 mi
12:00 AM73 °FClear.2 mph83%29.98 "Hg10 mi
11:30 PM
Oct 24
77 °FClear.1 mph69%29.95 "Hg10 mi
11:00 PM75 °FClear.No wind74%29.95 "Hg10 mi
10:30 PM75 °FClear.2 mph78%29.95 "Hg10 mi
10:00 PM75 °FClear.No wind78%29.95 "Hg10 mi
9:30 PM81 °FClear.1 mph62%29.95 "Hg10 mi
9:00 PM84 °FClear.5 mph48%29.95 "Hg10 mi
8:30 PM84 °FPassing clouds.5 mph51%29.95 "HgN/A
8:00 PM86 °FClear.6 mph43%29.92 "Hg10 mi
7:30 PM84 °FClear.5 mph45%29.92 "Hg10 mi
7:00 PM82 °FClear.No wind58%29.89 "Hg10 mi
6:30 PM86 °FClear.No wind46%29.89 "Hg10 mi
6:00 PM90 °FSunny.2 mph55%29.86 "Hg10 mi
5:30 PM93 °FPartly sunny.No wind36%29.86 "HgN/A
5:00 PM95 °FPartly sunny.2 mph26%29.86 "HgN/A
4:30 PM95 °FPartly sunny.1 mph26%29.86 "HgN/A
4:00 PM97 °FPartly sunny.1 mph23%29.86 "HgN/A
3:30 PM97 °FBroken clouds.3 mph23%29.86 "HgN/A
3:00 PM93 °FBroken clouds.5 mph30%29.95 "HgN/A
2:30 PM97 °FBroken clouds.8 mph23%29.89 "HgN/A
2:00 PM97 °FBroken clouds.3 mph25%29.89 "HgN/A
1:30 PM97 °FBroken clouds.3 mph28%29.92 "HgN/A
1:00 PM93 °FBroken clouds.1 mph34%29.92 "HgN/A
12:30 PM93 °FPartly sunny.6 mph34%29.92 "HgN/A
12:00 PM91 °FPartly sunny.8 mph38%29.95 "HgN/A
11:30 AM91 °FPartly sunny.8 mph44%29.95 "HgN/A
11:00 AM90 °FPartly sunny.8 mph49%29.98 "HgN/A
Weather by CustomWeather, © 2014

See weather overviewHow to use our weather pages